RH
58 63 72 75 77 74 75 58 48 48 47 35 36 39 48 42 43 33 27 24 21 27 32 43 45 49 60 69 74 85 75 49 42 44 45 48 51 53 57 62 71 82 84 82
65 68 74 84 82 75 64 47 45 47 42 43 38 45 37 35 30 26 20 20 28 33 36 42 42 50 59 72 80 91 68 44 45 46 49 51 54 57 60 69 78 85 91 91
70 80 85 83 90 73 47 48 52 49 42 38 44 39 36 27 29 24 18 25 34 35 40 41 47 45 64 77 86 89 65 47 46 49 49 50 55 57 67 78 89 96 98 96
83 86 96 92 85 58 51 46 47 43 40 44 47 47 43 38 21 17 19 31 38 38 44 42 40 43 60 80 94 93 64 50 49 48 51 51 53 60 73 83 95 97 97 96
92 95 98 92 67 60 55 55 49 44 50 52 54 55 46 26 19 19 28 31 41 37 38 38 39 42 58 83 94 89 71 52 49 50 52 51 52 63 79 95 89 88 95 98
92 95 97 84 55 57 57 57 55 47 49 50 47 38 27 23 22 23 30 31 32 36 36 38 39 43 53 82 88 79 70 57 49 50 50 50 51 69 89 86 85 94 95 93
98 88 95 74 59 62 68 60 52 44 46 45 38 33 26 26 25 29 31 28 29 33 36 40 42 45 53 82 79 77 72 57 47 46 46 46 53 74 85 78 81 84 89 94
97 97 96 78 58 68 58 53 47 47 45 37 33 34 27 27 27 29 27 27 28 30 33 38 43 43 56 83 82 78 71 50 46 44 44 43 49 74 73 69 74 82 89 95
95 97 92 82 62 56 53 50 45 47 44 33 31 29 29 28 29 28 27 27 28 28 30 35 41 41 53 85 92 76 72 55 46 45 43 43 42 65 60 66 73 80 85 91
95 96 91 67 56 54 51 48 44 42 36 33 30 35 28 30 30 28 27 27 27 25 27 32 37 42 45 82 97 91 67 64 50 40 40 41 39 52 59 63 68 76 76 78
92 88 75 60 57 55 51 48 46 39 36 33 30 34 29 31 27 27 28 26 25 24 25 28 32 40 42 70 96 98 75 61 59 43 38 37 38 42 49 53 59 60 64 70
91 88 79 64 57 52 51 45 43 38 35 33 31 30 30 30 26 28 26 24 24 23 23 24 28 35 42 57 95 98 92 70 56 54 46 37 37 38 44 46 48 53 59 64
89 85 72 60 55 52 49 45 40 34 32 29 30 30 28 28 27 27 24 23 23 23 22 22 23 26 38 42 74 98 97 86 83 68 56 51 41 37 38 40 43 46 52 56
82 83 73 66 61 54 52 46 40 36 30 28 29 30 29 29 26 26 24 25 25 23 22 21 19 20 27 39 38 78 97 96 90 92 96 77 45 40 37 37 36 36 40 46
73 73 71 70 63 59 50 46 41 36 29 27 29 28 26 25 23 24 23 23 22 22 22 20 19 18 19 26 34 38 72 97 91 98 98 98 94 69 42 38 37 37 41 42
73 71 71 66 60 52 42 40 39 36 29 29 28 27 26 26 24 23 21 21 20 20 20 18 18 18 18 19 23 31 40 65 95 91 97 99 99 95 86 52 38 36 36 36
75 71 66 66 61 57 45 43 37 31 29 30 31 29 25 26 25 20 19 20 21 17 15 15 16 17 17 17 18 22 27 37 54 83 92 92 98 99 95 83 67 48 37 34
69 68 70 68 61 54 48 41 39 36 33 31 30 27 24 23 24 22 21 21 23 20 18 15 13 13 14 16 16 17 20 24 31 43 67 90 90 86 98 96 85 78 62 57
68 67 64 66 68 61 50 43 37 33 31 31 29 28 27 25 23 24 26 23 21 21 21 19 16 14 12 12 14 15 16 18 21 25 35 54 72 78 80 93 97 89 78 72
66 67 68 64 60 60 61 56 45 35 30 28 29 30 30 28 25 27 31 31 26 26 26 25 22 20 15 12 11 12 14 15 16 19 22 27 44 57 68 74 89 98 95 87
62 64 67 68 67 64 63 59 56 54 46 36 31 28 27 29 30 30 29 30 28 28 28 26 24 21 20 17 13 11 10 12 14 15 16 19 22 29 46 47 53 63 77 90
47 57 60 63 67 70 71 69 66 65 60 57 54 45 35 29 30 31 31 29 31 30 28 28 28 26 24 22 20 16 12 11 11 12 13 14 16 19 22 28 34 36 32 26
35 44 49 52 55 57 62 67 71 72 71 70 70 66 62 53 37 32 29 27 26 27 31 34 36 34 33 32 31 27 21 17 13 11 11 12 13 13 15 18 20 22 24 26
25 29 40 45 49 52 54 56 58 60 64 69 70 72 73 74 72 61 47 37 33 30 29 31 33 39 42 41 39 37 36 33 26 20 14 12 12 12 12 12 13 16 18 20
18 20 24 37 41 39 42 46 45 45 47 49 56 64 70 74 76 77 78 73 58 43 34 31 31 32 35 40 47 49 45 42 40 37 32 25 18 13 13 12 13 12 12 14
18 19 23 22 26 30 28 31 34 34 32 29 29 26 27 33 45 60 73 78 80 77 60 43 35 32 33 34 36 40 46 51 51 48 45 43 39 34 25 17 13 12 13 14
17 20 27 27 27 26 22 21 23 25 23 16 16 19 18 15 16 19 26 39 63 79 83 80 62 44 36 34 32 33 36 40 45 51 54 54 52 49 47 44 38 29 21 15